Simultaneous Nadir Overpasses (SNOs) Predictions

Prediction of SNOs between METOP-B and TERRA Satellite Orbit:

Table of predicted SNOs for the next 14.0 days since TLE Epoch: 10/28/2023
Index Date (METOP-B) Time (METOP-B) Lat,Lon (METOP-B) SZA (METOP-B ) Date (TERRA) Time (TERRA) Lat,Lon (TERRA) SZA (TERRA ) Distance(km) Time Diff (sec)
1 10/28/2023 16:46:59 80.62, -43.20 95.21 10/28/2023 16:47:39 80.62, -43.26 95.21 1.14 40
2 10/28/2023 17:37:36 -80.71, 125.53 84.59 10/28/2023 17:36:59 -80.71, 125.36 84.62 3.13 37
3 10/31/2023 08:07:58 -80.60, -93.71 83.97 10/31/2023 08:08:46 -80.60, -93.77 83.96 1.27 48
4 10/31/2023 08:58:35 80.68, 74.77 96.21 10/31/2023 08:58:04 80.68, 74.79 96.20 0.43 31
5 11/02/2023 23:28:56 80.59,-144.22 96.84 11/02/2023 23:29:50 80.58,-144.24 96.85 0.57 54
6 11/03/2023 00:19:33 -80.68, 24.52 82.95 11/03/2023 00:19:10 -80.68, 24.40 82.98 2.31 23
7 11/05/2023 14:49:53 -80.58, 165.47 82.36 11/05/2023 14:50:54 -80.59, 165.50 82.34 0.79 61
8 11/05/2023 15:40:31 80.64, -26.43 97.76 11/05/2023 15:40:13 80.64, -26.30 97.77 2.34 18
9 11/08/2023 06:10:51 80.55, 114.77 98.35 11/08/2023 06:11:57 80.56, 114.92 98.40 2.82 66
10 11/08/2023 07:01:28 -80.65, -76.46 81.43 11/08/2023 07:01:17 -80.65, -76.43 81.43 0.75 11
11 11/10/2023 21:31:48 -80.56, 64.67 80.88 11/10/2023 21:33:01 -80.55, 64.59 80.87 1.67 73



Historial Predications of SNOs between METOP-B and TERRA
